Погода в Серафимовиче

Поиск расширенной информации на нашем сайте:

Полезная информация:

Новости сайта



02.01.2020
Опубликован Долгосрочный прогноз погоды по городам России и ближнего зарубежья на январь 2020 года.
Карты: Прогноз на январь и февраль 2020 года, Сравнение прогнозируемой аномалии приземной температуры воздуха на январь 2020 года по разным моделям.




Погода в Серафимовиче - сегодня

Время (UTC), дата Ветер
(°,м/с) 
Видим.   Явления Облачность Т
(°С)
Тd
(°С)
f(%) Тe
(°С)
Pmin
(гПа)
dP
(гПа)
Po
(мм)
O2
(г/м3)
Тmin Tmax R s Состояние
почвы
12 18.10.20 200 (Ю) 4{11}  20000 м    3/0 верхняя 
[Ci fib]
+20.7 +10.9 53 +23  1010.9  -0.5  747  278           
15 18.10.20 310 (СЗ) 5-10  20000 м    10/8 600 м кучево-дожд., верхняя 
[Cb calv|Cs]
+15.7 +4.4 47 +15  1007.4  0.9  744  283    +25.1       
18 18.10.20 270 (З) 20000 м    3/0 верхняя 
[Ci fib]
+15.6 +8.1 61 +16  1013.4  1.4  749  284           
21 18.10.20 280 (З) 20000 м    3/0 средняя 
[Ac trans]
+12.9 +5.8 62 +14  1015.1  1.5  750  288           
00 19.10.20 250 (З) 20000 м    ясно 
+10.4 +5.1 70 +11  1016.3  1.1  751  291           
03 19.10.20 240 (ЮЗ) 20000 м    8/0 средняя, верхняя 
[Ac trans|Ci fib]
+7.4 +4.5 82 +7  1017.6  1.1  752  294  +7.4         
06 19.10.20 310 (СЗ) 20000 м    6/0 верхняя 
[Ci fib]
+7.7 +3.8 76 +9  1019.5  1.9  753  295  +6.4         
09 19.10.20 340 (С) 20000 м    4/0 средняя, верхняя 
[Ac trans|Ci fib]
+11.9 +1.8 50 +12  1018.8  -0.4  753  290           
12 19.10.20 330 (СЗ) 20000 м    6/0 средняя, верхняя 
[Ac trans|Ci fib]
+13 -1.4 37 +13  1017.6  -1.1  752  289           
15 19.10.20 090 (В) 20000 м    9/0 средняя 
[Ac trans]
+10.9 -0.4 46 +12  1017.6  -0.1  752  291    +13.9       
18 19.10.20 250 (З) 20000 м    10/0 средняя 
[Ac und]
+9.5 -0.2 51 +11  1018.4  0.8  752  293           
21 19.10.20 220 (ЮЗ) 20000 м    10/0 средняя 
[Ac und]
+9.6 +0.3 52 +11  1018.9  0.8  753  293           
00 20.10.20 240 (ЮЗ) 20000 м    10/6 600 м средняя 
[Sc|Ac und]
+7.4 +0.4 61 +7  1019.8  0.7  753  295           
03 20.10.20 240 (ЮЗ) 20000 м    3/0 средняя 
[Ac trans]
+5.9 +1.1 71 +6  1020.9  754  297  +5.9         
06 20.10.20 250 (З) 20000 м    ясно 
+7.4 +1.8 68 +8  1022  1.2  755  296  +5.5         
09 20.10.20 240 (ЮЗ) 20000 м    4/4 600 м 
[Cu hum]
+11.5 -2.6 37 +11  1021.5  -0.3  755  292           
12 20.10.20 290 (З) 20000 м    1/1 600 м 
[Cu hum]
+11.9 -7.6 25 +12  1020.5  -1  754  292           
15 20.10.20 250 (З) 20000 м    1/1 600 м 
[Cu hum]
+9 -5.1 36 +9  1021.1  0.5  754  295    +12.3       
18 20.10.20 240 (ЮЗ) 20000 м    ясно 
+7.2 -4.5 43 +6  1021.4  0.2  755  297           
21 20.10.20 250 (З) 20000 м    ясно 
+6 -3.2 52 +6  1022.3  0.8  755  298           
00 21.10.20 250 (З) 20000 м    ясно 
+3.7 -2.1 66 +3  1023.3  0.8  756  301           
03 21.10.20 240 (ЮЗ) 20000 м    ясно 
+1.8 -1.8 77 1024.7  1.2  757  303  +1.8         
06 21.10.20 270 (З) 20000 м    ясно 
+3.6 -1.4 70 +3  1026.2  1.6  758  302  +1.4         
09 21.10.20 350 (С) 20000 м    6/4 600 м верхняя 
[Cu hum|Ci fib]
+7.9 -3.3 45 +8  1026  758  297           
12 21.10.20 280 (З) 20000 м    8/0 верхняя 
[Ci fib]
+8.5 -4.9 38 +9  1025.3  -0.6  757  297           
Время (UTC), дата Ветер
(°,м/с) 
Видим.   Явления Облачность Т
(°С)
Тd
(°С)
f(%) Тe
(°С)
Pmin
(гПа)
dP
(гПа)
Po
(мм)
O2
(г/м3)
Тmin Tmax R s Состояние
почвы

Для получения пояснительной информации подведите курсор к названию столбца.

ПОГОДА в Серафимовиче - архив

Всё, что Вы хотите узнать о погоде в Серафимовиче - удобно и подробно!

Выберите нужную дату (начиная с 1 января 2019* года) и нажмите кнопку "Найти".
Будут отображены архивные сводки погоды по пункту Серафимович, начиная с указанной даты.


Отображать данные в формате CSV (для использования в таблицах Excel)


Внимание! Наш архив погоды предназначен исключительно для личного некоммерческого использования в познавательных целях. Если Вам необходимы официальные справки о состоянии погоды (для производственных, юридических, коммерческих и т.п. целей), обращайтесь в органы Росгидромета.

*Примечание: данная дата относится к архиву по метеостанциям СССР (Россия, СНГ, Балтия).
Архив по метеостанциям Зарубежной Европы и Азии (кроме Китая) хранится 10 дней, по другим регионам земного шара (Китай, Африка, Америка, Австралия, Океания) - 1 день.

Серафимович - район местоположения метеостанции


Название, широта, долгота, высота метеостанции:
Серафимович 49.6°ш. 42.8°д. 200 м над ур. моря [Российская Федерация]

Дополнительная информация

В oтличие oт бoльшинства пoгoдных сайтoв мы публикуем пoдрoбную метеoинфoрмацию в детальнoм прoфессиoнальнoм фoрмате.

Характеристики температуры и влажнoсти вoздуха измеряются на высoте 2 м в тени вдали oт зданий и деревьев.
Скoрoсть ветра измеряется на высoте 10 м (на урoвне рoста челoвека скoрoсть ветра ниже в 1.5-2 раза). Если метеoстанция нахoдится в гoрoде или в лесу, тo скoрoсть ветра занижена на 2-4 м/с пo сравнению с oткрытым местoм. Скoрoсть ветра над акватoриями крупных рек и oзёр, а также на вершинах хoлмoв на 2-5 м/с выше, чем в oбычных услoвиях.
Атмoсфернoе давление в разных тoчках местнoсти мoжет значительнo oтличаться oт давления на метеoстанции, в зависимoсти oт услoвий рельефа (при пoдъёме на 10 м давление пoнижается примернo на 1 мм рт.ст.).